Time,TemperatureF,DewpointF,PressureIn,WindDirection,WindDirectionDegrees,WindSpeedMPH,WindSpeedGustMPH,Humidity,HourlyPrecipIn,Conditions,Clouds,dailyrainin,SoftwareType,DateUTC
2013-03-01 00:02:00,30.9,24.3,29.69,WNW,302,7.0,16.0,76,0.00,,,0.04,meteohub,2013-03-01 05:02:00,
2013-03-01 00:07:00,30.9,24.3,29.69,SSE,168,10.0,16.0,76,0.00,,,0.00,meteohub,2013-03-01 05:07:00,
2013-03-01 00:17:00,30.9,24.3,29.72,WSW,258,5.0,13.0,76,0.00,,,0.00,meteohub,2013-03-01 05:17:00,
2013-03-01 00:27:00,30.9,24.6,29.72,SW,235,7.0,11.0,77,0.00,,,0.00,meteohub,2013-03-01 05:27:00,
2013-03-01 00:32:00,30.9,24.6,29.72,SSW,212,12.0,13.0,77,0.00,,,0.00,meteohub,2013-03-01 05:32:00,
2013-03-01 00:37:00,30.7,24.6,29.72,SSW,212,6.0,14.0,78,0.00,,,0.00,meteohub,2013-03-01 05:37:00,
2013-03-01 00:42:00,30.7,24.6,29.72,South,190,8.0,14.0,78,0.00,,,0.00,meteohub,2013-03-01 05:42:00,
2013-03-01 00:47:00,30.7,25.0,29.72,SW,235,9.0,15.0,79,0.00,,,0.00,meteohub,2013-03-01 05:47:00,
2013-03-01 00:52:00,30.7,25.0,29.72,SSW,212,6.0,15.0,79,0.00,,,0.00,meteohub,2013-03-01 05:52:00,
2013-03-01 00:57:00,30.7,25.0,29.72,South,190,7.0,13.0,79,0.00,,,0.00,meteohub,2013-03-01 05:57:00,
2013-03-01 01:02:00,30.7,24.6,29.72,SSE,168,7.0,15.0,78,0.00,,,0.00,meteohub,2013-03-01 06:02:00,
2013-03-01 01:07:00,30.9,24.8,29.72,SW,235,6.0,15.0,78,0.00,,,0.00,meteohub,2013-03-01 06:07:00,
2013-03-01 01:12:00,30.9,24.8,29.69,SW,235,6.0,15.0,78,0.00,,,0.00,meteohub,2013-03-01 06:12:00,
2013-03-01 01:17:00,30.9,24.8,29.69,WNW,302,5.0,11.0,78,0.00,,,0.00,meteohub,2013-03-01 06:17:00,
2013-03-01 01:22:00,30.9,24.8,29.69,SE,145,7.0,13.0,78,0.00,,,0.00,meteohub,2013-03-01 06:22:00,
2013-03-01 01:27:00,30.9,24.8,29.72,South,190,7.0,13.0,78,0.00,,,0.00,meteohub,2013-03-01 06:27:00,
2013-03-01 01:32:00,30.9,24.8,29.72,SSE,168,7.0,16.0,78,0.00,,,0.00,meteohub,2013-03-01 06:32:00,
2013-03-01 01:37:00,30.9,24.8,29.72,South,190,13.0,19.0,78,0.00,,,0.00,meteohub,2013-03-01 06:37:00,
2013-03-01 01:42:00,30.9,24.8,29.72,SSW,212,7.0,19.0,78,0.00,,,0.00,meteohub,2013-03-01 06:42:00,
2013-03-01 01:47:00,30.9,24.8,29.72,WSW,258,8.0,19.0,78,0.00,,,0.00,meteohub,2013-03-01 06:47:00,
2013-03-01 01:57:00,30.9,24.6,29.72,WSW,258,17.0,17.0,77,0.00,,,0.00,meteohub,2013-03-01 06:57:00,
2013-03-01 02:02:00,30.9,24.6,29.72,South,190,5.0,17.0,77,0.00,,,0.00,meteohub,2013-03-01 07:02:00,
2013-03-01 02:07:00,30.9,24.3,29.72,SE,145,8.0,17.0,76,0.00,,,0.00,meteohub,2013-03-01 07:07:00,
2013-03-01 02:12:00,30.9,24.3,29.72,South,190,5.0,17.0,76,0.00,,,0.00,meteohub,2013-03-01 07:12:00,
2013-03-01 02:17:00,30.9,24.3,29.72,SW,235,6.0,15.0,76,0.00,,,0.00,meteohub,2013-03-01 07:17:00,
2013-03-01 02:27:00,30.9,24.3,29.69,WNW,302,4.0,13.0,76,0.00,,,0.00,meteohub,2013-03-01 07:27:00,
2013-03-01 02:32:00,30.9,24.3,29.69,WNW,302,5.0,13.0,76,0.00,,,0.00,meteohub,2013-03-01 07:32:00,
2013-03-01 02:37:00,30.9,24.3,29.69,WSW,258,3.0,13.0,76,0.00,,,0.00,meteohub,2013-03-01 07:37:00,
2013-03-01 02:42:00,30.9,24.3,29.66,WNW,302,6.0,11.0,76,0.00,,,0.00,meteohub,2013-03-01 07:42:00,
2013-03-01 02:52:00,30.7,24.1,29.66,NNW,348,4.0,9.0,76,0.00,,,0.00,meteohub,2013-03-01 07:52:00,
2013-03-01 02:57:00,30.6,24.3,29.69,SE,145,4.0,9.0,77,0.00,,,0.00,meteohub,2013-03-01 07:57:00,
2013-03-01 03:07:00,30.6,24.3,29.69,South,190,12.0,12.0,77,0.00,,,0.00,meteohub,2013-03-01 08:07:00,
2013-03-01 03:17:00,30.6,24.3,29.66,SW,235,0.0,16.0,77,0.00,,,0.00,meteohub,2013-03-01 08:17:00,
2013-03-01 03:22:00,30.6,24.3,29.66,SSW,212,3.0,16.0,77,0.00,,,0.00,meteohub,2013-03-01 08:22:00,
2013-03-01 03:27:00,30.6,24.6,29.69,SW,235,8.0,16.0,78,0.00,,,0.00,meteohub,2013-03-01 08:27:00,
2013-03-01 03:37:00,30.6,24.3,29.69,SSW,212,6.0,15.0,77,0.00,,,0.00,meteohub,2013-03-01 08:37:00,
2013-03-01 03:47:00,30.6,24.3,29.69,South,190,6.0,15.0,77,0.00,,,0.00,meteohub,2013-03-01 08:47:00,
2013-03-01 03:57:00,30.7,24.4,29.69,SSE,168,5.0,21.0,77,0.00,,,0.00,meteohub,2013-03-01 08:57:00,
2013-03-01 04:02:00,30.7,24.4,29.69,WNW,302,8.0,21.0,77,0.00,,,0.00,meteohub,2013-03-01 09:02:00,
2013-03-01 04:07:00,30.7,24.4,29.69,SSW,212,9.0,21.0,77,0.00,,,0.00,meteohub,2013-03-01 09:07:00,
2013-03-01 04:12:00,30.7,24.4,29.72,WSW,258,7.0,15.0,77,0.00,,,0.00,meteohub,2013-03-01 09:12:00,
2013-03-01 04:17:00,30.6,23.9,29.72,NW,325,3.0,15.0,76,0.00,,,0.00,meteohub,2013-03-01 09:17:00,
2013-03-01 04:27:00,30.2,23.5,29.69,West,280,5.0,9.0,76,0.00,,,0.00,meteohub,2013-03-01 09:27:00,
2013-03-01 04:37:00,30.7,23.5,29.69,SSW,212,11.0,13.0,74,0.00,,,0.00,meteohub,2013-03-01 09:37:00,
2013-03-01 04:42:00,30.9,23.4,29.66,ESE,122,7.0,13.0,73,0.00,,,0.00,meteohub,2013-03-01 09:42:00,
2013-03-01 04:47:00,30.9,23.4,29.66,North,10,0.0,13.0,73,0.00,,,0.00,meteohub,2013-03-01 09:47:00,
2013-03-01 04:52:00,30.9,23.4,29.66,South,190,5.0,12.0,73,0.00,,,0.00,meteohub,2013-03-01 09:52:00,
2013-03-01 04:57:00,30.9,23.0,29.69,SE,145,0.0,10.0,72,0.00,,,0.00,meteohub,2013-03-01 09:57:00,
2013-03-01 05:02:00,30.9,23.0,29.69,North,10,3.0,10.0,72,0.00,,,0.00,meteohub,2013-03-01 10:02:00,
2013-03-01 05:07:00,30.9,23.0,29.69,SSW,212,3.0,10.0,72,0.00,,,0.00,meteohub,2013-03-01 10:07:00,
2013-03-01 05:12:00,30.9,23.0,29.66,WNW,302,0.0,6.0,72,0.00,,,0.00,meteohub,2013-03-01 10:12:00,
2013-03-01 05:17:00,30.7,22.8,29.66,SSE,168,5.0,6.0,72,0.00,,,0.00,meteohub,2013-03-01 10:17:00,
2013-03-01 05:22:00,30.7,22.8,29.66,East,100,2.0,6.0,72,0.00,,,0.00,meteohub,2013-03-01 10:22:00,
2013-03-01 05:27:00,30.7,22.8,29.69,WSW,258,0.0,5.0,72,0.00,,,0.00,meteohub,2013-03-01 10:27:00,
2013-03-01 05:37:00,30.7,22.5,29.69,SSW,212,5.0,7.0,71,0.00,,,0.00,meteohub,2013-03-01 10:37:00,
2013-03-01 05:47:00,30.9,22.6,29.69,SSE,168,3.0,8.0,71,0.00,,,0.00,meteohub,2013-03-01 10:47:00,
2013-03-01 05:52:00,30.9,22.6,29.69,WSW,258,0.0,8.0,71,0.00,,,0.00,meteohub,2013-03-01 10:52:00,
2013-03-01 05:57:00,30.7,22.5,29.69,SSW,212,6.0,8.0,71,0.00,,,0.00,meteohub,2013-03-01 10:57:00,
2013-03-01 06:02:00,30.9,22.6,29.69,NW,325,5.0,6.0,71,0.00,,,0.00,meteohub,2013-03-01 11:02:00,
2013-03-01 06:07:00,30.9,22.6,29.69,SSW,212,4.0,6.0,71,0.00,,,0.00,meteohub,2013-03-01 11:07:00,
2013-03-01 06:12:00,30.9,22.3,29.69,SSW,212,7.0,7.0,70,0.00,,,0.00,meteohub,2013-03-01 11:12:00,
2013-03-01 06:17:00,30.9,22.3,29.69,WSW,258,0.0,8.0,70,0.00,,,0.00,meteohub,2013-03-01 11:17:00,
2013-03-01 06:22:00,30.9,22.3,29.69,South,190,0.0,8.0,70,0.00,,,0.00,meteohub,2013-03-01 11:22:00,
2013-03-01 06:27:00,30.9,21.9,29.72,South,190,5.0,8.0,69,0.00,,,0.00,meteohub,2013-03-01 11:27:00,
2013-03-01 06:32:00,31.1,22.1,29.72,West,280,5.0,13.0,69,0.00,,,0.00,meteohub,2013-03-01 11:32:00,
2013-03-01 06:37:00,31.3,21.6,29.72,NNW,348,7.0,13.0,67,0.00,,,0.00,meteohub,2013-03-01 11:37:00,
2013-03-01 06:42:00,31.3,21.6,29.72,NW,325,7.0,13.0,67,0.00,,,0.00,meteohub,2013-03-01 11:42:00,
2013-03-01 06:52:00,31.1,21.0,29.72,NW,325,6.0,12.0,66,0.00,,,0.00,meteohub,2013-03-01 11:52:00,
2013-03-01 07:02:00,31.3,20.5,29.72,South,190,2.0,8.0,64,0.00,,,0.00,meteohub,2013-03-01 12:02:00,
2013-03-01 07:07:00,31.1,20.3,29.72,SSW,212,4.0,8.0,64,0.00,,,0.00,meteohub,2013-03-01 12:07:00,
2013-03-01 07:12:00,31.1,20.3,29.72,West,280,0.0,11.0,64,0.00,,,0.00,meteohub,2013-03-01 12:12:00,
2013-03-01 07:17:00,31.1,19.9,29.72,WNW,302,9.0,11.0,63,0.00,,,0.00,meteohub,2013-03-01 12:17:00,
2013-03-01 07:22:00,31.3,20.1,29.72,NW,325,0.0,11.0,63,0.00,,,0.00,meteohub,2013-03-01 12:22:00,
2013-03-01 07:27:00,31.3,20.1,29.75,WNW,302,4.0,11.0,63,0.00,,,0.00,meteohub,2013-03-01 12:27:00,
2013-03-01 07:32:00,31.3,20.1,29.75,WSW,258,4.0,11.0,63,0.00,,,0.00,meteohub,2013-03-01 12:32:00,
2013-03-01 07:37:00,31.3,19.8,29.75,WNW,302,13.0,13.0,62,0.00,,,0.00,meteohub,2013-03-01 12:37:00,
2013-03-01 07:42:00,31.5,19.6,29.75,NNW,348,7.0,9.0,61,0.00,,,0.00,meteohub,2013-03-01 12:42:00,
2013-03-01 07:47:00,31.5,19.2,29.75,South,190,6.0,15.0,60,0.00,,,0.00,meteohub,2013-03-01 12:47:00,
2013-03-01 07:52:00,31.6,18.5,29.75,NNW,348,5.0,16.0,58,0.00,,,0.00,meteohub,2013-03-01 12:52:00,
2013-03-01 07:57:00,31.6,19.0,29.75,WSW,258,6.0,16.0,59,0.00,,,0.00,meteohub,2013-03-01 12:57:00,
2013-03-01 08:02:00,31.8,18.7,29.75,WSW,258,2.0,13.0,58,0.00,,,0.00,meteohub,2013-03-01 13:02:00,
2013-03-01 08:07:00,31.8,18.3,29.75,WSW,258,3.0,11.0,57,0.00,,,0.00,meteohub,2013-03-01 13:07:00,
2013-03-01 08:12:00,32.0,18.5,29.75,North,10,4.0,11.0,57,0.00,,,0.00,meteohub,2013-03-01 13:12:00,
2013-03-01 08:22:00,32.4,18.5,29.75,SSW,212,2.0,15.0,56,0.00,,,0.00,meteohub,2013-03-01 13:22:00,
2013-03-01 08:27:00,32.4,17.6,29.75,NW,325,9.0,15.0,54,0.00,,,0.00,meteohub,2013-03-01 13:27:00,
2013-03-01 08:32:00,32.5,18.1,29.75,SW,235,4.0,17.0,55,0.00,,,0.00,meteohub,2013-03-01 13:32:00,
2013-03-01 08:37:00,32.5,17.4,29.75,North,10,9.0,17.0,53,0.00,,,0.00,meteohub,2013-03-01 13:37:00,
2013-03-01 08:42:00,32.4,17.2,29.75,NNW,348,3.0,16.0,53,0.00,,,0.00,meteohub,2013-03-01 13:42:00,
2013-03-01 08:47:00,32.4,17.2,29.75,WSW,258,3.0,16.0,53,0.00,,,0.00,meteohub,2013-03-01 13:47:00,
2013-03-01 08:52:00,32.4,17.6,29.75,North,10,5.0,16.0,54,0.00,,,0.00,meteohub,2013-03-01 13:52:00,
2013-03-01 08:57:00,32.5,17.8,29.75,SW,235,7.0,15.0,54,0.00,,,0.00,meteohub,2013-03-01 13:57:00,
2013-03-01 09:02:00,32.5,17.8,29.75,NNW,348,8.0,13.0,54,0.00,,,0.00,meteohub,2013-03-01 14:02:00,
2013-03-01 09:07:00,32.5,17.8,29.75,WSW,258,3.0,12.0,54,0.00,,,0.00,meteohub,2013-03-01 14:07:00,
2013-03-01 09:12:00,32.5,17.8,29.75,WNW,302,6.0,19.0,54,0.00,,,0.00,meteohub,2013-03-01 14:12:00,
2013-03-01 09:17:00,32.7,18.0,29.75,SSW,212,6.0,19.0,54,0.00,,,0.00,meteohub,2013-03-01 14:17:00,
2013-03-01 09:22:00,32.7,18.0,29.75,ENE,78,4.0,17.0,54,0.00,,,0.00,meteohub,2013-03-01 14:22:00,
2013-03-01 09:27:00,32.9,18.1,29.75,WNW,302,3.0,17.0,54,0.00,,,0.00,meteohub,2013-03-01 14:27:00,
2013-03-01 09:32:00,32.7,18.0,29.75,NNW,348,8.0,14.0,54,0.00,,,0.00,meteohub,2013-03-01 14:32:00,
2013-03-01 09:37:00,32.7,18.0,29.75,WNW,302,2.0,14.0,54,0.00,,,0.00,meteohub,2013-03-01 14:37:00,
2013-03-01 09:42:00,32.7,18.0,29.75,NW,325,7.0,15.0,54,0.00,,,0.00,meteohub,2013-03-01 14:42:00,
2013-03-01 09:47:00,32.7,18.0,29.75,WNW,302,12.0,15.0,54,0.00,,,0.00,meteohub,2013-03-01 14:47:00,
2013-03-01 09:52:00,32.7,18.0,29.75,NNW,348,10.0,15.0,54,0.00,,,0.00,meteohub,2013-03-01 14:52:00,
2013-03-01 09:57:00,33.1,18.3,29.78,West,280,8.0,15.0,54,0.00,,,0.00,meteohub,2013-03-01 14:57:00,
2013-03-01 10:02:00,33.4,18.7,29.78,SW,235,5.0,12.0,54,0.00,,,0.00,meteohub,2013-03-01 15:02:00,
2013-03-01 10:07:00,33.3,17.6,29.78,WNW,302,11.0,11.0,52,0.00,,,0.00,meteohub,2013-03-01 15:07:00,
2013-03-01 10:12:00,33.3,18.0,29.72,WSW,258,5.0,15.0,53,0.00,,,0.00,meteohub,2013-03-01 15:12:00,
2013-03-01 10:17:00,33.3,17.6,29.72,NNW,348,9.0,15.0,52,0.00,,,0.00,meteohub,2013-03-01 15:17:00,
2013-03-01 10:22:00,32.9,17.2,29.72,North,10,10.0,15.0,52,0.00,,,0.00,meteohub,2013-03-01 15:22:00,
2013-03-01 10:27:00,32.7,17.1,29.72,North,10,15.0,17.0,52,0.00,,,0.00,meteohub,2013-03-01 15:27:00,
2013-03-01 10:32:00,32.5,17.4,29.72,North,10,7.0,17.0,53,0.00,,,0.00,meteohub,2013-03-01 15:32:00,
2013-03-01 10:37:00,32.5,17.8,29.72,NNW,348,9.0,17.0,54,0.00,,,0.00,meteohub,2013-03-01 15:37:00,
2013-03-01 10:42:00,32.7,18.0,29.75,NNW,348,8.0,17.0,54,0.00,,,0.00,meteohub,2013-03-01 15:42:00,
2013-03-01 10:47:00,32.9,18.1,29.75,West,280,2.0,17.0,54,0.00,,,0.00,meteohub,2013-03-01 15:47:00,
2013-03-01 10:52:00,32.9,18.1,29.75,North,10,10.0,17.0,54,0.00,,,0.00,meteohub,2013-03-01 15:52:00,
2013-03-01 10:57:00,32.7,18.0,29.75,NW,325,11.0,17.0,54,0.00,,,0.00,meteohub,2013-03-01 15:57:00,
2013-03-01 11:02:00,32.7,17.6,29.75,West,280,6.0,17.0,53,0.00,,,0.00,meteohub,2013-03-01 16:02:00,
2013-03-01 11:07:00,32.7,17.6,29.75,NW,325,8.0,17.0,53,0.00,,,0.00,meteohub,2013-03-01 16:07:00,
2013-03-01 11:12:00,32.9,18.1,29.75,West,280,8.0,14.0,54,0.00,,,0.00,meteohub,2013-03-01 16:12:00,
2013-03-01 11:17:00,32.7,17.6,29.75,NNW,348,13.0,14.0,53,0.00,,,0.00,meteohub,2013-03-01 16:17:00,
2013-03-01 11:22:00,32.9,18.1,29.75,West,280,5.0,13.0,54,0.00,,,0.00,meteohub,2013-03-01 16:22:00,
2013-03-01 11:27:00,32.7,17.6,29.72,North,10,3.0,13.0,53,0.00,,,0.00,meteohub,2013-03-01 16:27:00,
2013-03-01 11:32:00,32.7,17.1,29.72,WNW,302,12.0,14.0,52,0.00,,,0.00,meteohub,2013-03-01 16:32:00,
2013-03-01 11:37:00,32.9,17.2,29.72,NNW,348,8.0,16.0,52,0.00,,,0.00,meteohub,2013-03-01 16:37:00,
2013-03-01 11:42:00,33.3,18.0,29.75,NNE,32,6.0,19.0,53,0.00,,,0.00,meteohub,2013-03-01 16:42:00,
2013-03-01 11:47:00,33.1,17.1,29.75,NNW,348,16.0,19.0,51,0.00,,,0.00,meteohub,2013-03-01 16:47:00,
2013-03-01 11:52:00,33.3,17.6,29.75,North,10,6.0,19.0,52,0.00,,,0.00,meteohub,2013-03-01 16:52:00,
2013-03-01 11:57:00,33.3,17.1,29.75,WNW,302,9.0,17.0,51,0.00,,,0.00,meteohub,2013-03-01 16:57:00,
2013-03-01 12:02:00,32.9,16.9,29.75,WNW,302,9.0,20.0,51,0.00,,,0.00,meteohub,2013-03-01 17:02:00,
2013-03-01 12:07:00,32.9,16.9,29.75,North,10,6.0,20.0,51,0.00,,,0.00,meteohub,2013-03-01 17:07:00,
2013-03-01 12:12:00,32.9,16.9,29.72,WNW,302,9.0,20.0,51,0.00,,,0.00,meteohub,2013-03-01 17:12:00,
2013-03-01 12:17:00,33.1,17.1,29.72,WNW,302,9.0,20.0,51,0.00,,,0.00,meteohub,2013-03-01 17:17:00,
2013-03-01 12:22:00,33.1,17.1,29.72,WNW,302,8.0,20.0,51,0.00,,,0.00,meteohub,2013-03-01 17:22:00,
2013-03-01 12:27:00,33.1,17.4,29.72,North,10,8.0,17.0,52,0.00,,,0.00,meteohub,2013-03-01 17:27:00,
2013-03-01 12:32:00,33.1,17.4,29.72,NNW,348,13.0,15.0,52,0.00,,,0.00,meteohub,2013-03-01 17:32:00,
2013-03-01 12:37:00,32.9,16.9,29.72,WNW,302,16.0,16.0,51,0.00,,,0.00,meteohub,2013-03-01 17:37:00,
2013-03-01 12:42:00,32.7,16.7,29.75,North,10,12.0,21.0,51,0.00,,,0.00,meteohub,2013-03-01 17:42:00,
2013-03-01 12:47:00,32.9,17.2,29.75,WSW,258,5.0,22.0,52,0.00,,,0.00,meteohub,2013-03-01 17:47:00,
2013-03-01 12:52:00,32.7,16.7,29.75,WNW,302,10.0,22.0,51,0.00,,,0.00,meteohub,2013-03-01 17:52:00,
2013-03-01 12:57:00,32.9,17.2,29.72,SW,235,13.0,20.0,52,0.00,,,0.00,meteohub,2013-03-01 17:57:00,
2013-03-01 13:02:00,32.7,16.7,29.72,NW,325,13.0,20.0,51,0.00,,,0.00,meteohub,2013-03-01 18:02:00,
2013-03-01 13:07:00,32.7,16.7,29.72,SW,235,10.0,21.0,51,0.00,,,0.00,meteohub,2013-03-01 18:07:00,
2013-03-01 13:12:00,32.9,16.9,29.75,NE,55,13.0,21.0,51,0.00,,,0.00,meteohub,2013-03-01 18:12:00,
2013-03-01 13:17:00,33.1,15.6,29.75,NNW,348,6.0,21.0,48,0.00,,,0.00,meteohub,2013-03-01 18:17:00,
2013-03-01 13:22:00,33.1,15.1,29.75,North,10,16.0,21.0,47,0.00,,,0.00,meteohub,2013-03-01 18:22:00,
2013-03-01 13:27:00,33.1,15.6,29.75,North,10,15.0,21.0,48,0.00,,,0.00,meteohub,2013-03-01 18:27:00,
2013-03-01 13:32:00,32.9,14.9,29.75,North,10,31.0,31.0,47,0.00,,,0.00,meteohub,2013-03-01 18:32:00,
2013-03-01 13:37:00,33.1,14.5,29.75,WSW,258,6.0,31.0,46,0.00,,,0.00,meteohub,2013-03-01 18:37:00,
2013-03-01 13:42:00,33.4,16.0,29.75,NNW,348,12.0,31.0,48,0.00,,,0.00,meteohub,2013-03-01 18:42:00,
2013-03-01 13:47:00,33.4,16.0,29.75,WNW,302,6.0,31.0,48,0.00,,,0.00,meteohub,2013-03-01 18:47:00,
2013-03-01 13:52:00,33.4,16.0,29.75,North,10,12.0,19.0,48,0.00,,,0.00,meteohub,2013-03-01 18:52:00,
2013-03-01 13:57:00,33.1,16.5,29.75,SSW,212,6.0,25.0,50,0.00,,,0.00,meteohub,2013-03-01 18:57:00,
2013-03-01 14:02:00,32.7,15.8,29.75,WNW,302,5.0,25.0,49,0.00,,,0.00,meteohub,2013-03-01 19:02:00,
2013-03-01 14:07:00,32.5,16.0,29.75,NW,325,12.0,25.0,50,0.00,,,0.00,meteohub,2013-03-01 19:07:00,
2013-03-01 14:12:00,32.4,16.3,29.75,North,10,10.0,22.0,51,0.00,,,0.00,meteohub,2013-03-01 19:12:00,
2013-03-01 14:17:00,32.0,15.4,29.75,WNW,302,11.0,22.0,50,0.00,,,0.00,meteohub,2013-03-01 19:17:00,
2013-03-01 14:22:00,31.8,14.9,29.75,NW,325,19.0,22.0,49,0.00,,,0.00,meteohub,2013-03-01 19:22:00,
2013-03-01 14:27:00,32.4,15.8,29.75,WSW,258,15.0,26.0,50,0.00,,,0.00,meteohub,2013-03-01 19:27:00,
2013-03-01 14:32:00,32.0,15.4,29.75,NW,325,15.0,26.0,50,0.00,,,0.00,meteohub,2013-03-01 19:32:00,
2013-03-01 14:37:00,32.0,15.4,29.75,NNW,348,11.0,26.0,50,0.00,,,0.00,meteohub,2013-03-01 19:37:00,
2013-03-01 14:42:00,32.0,15.4,29.75,WNW,302,13.0,20.0,50,0.00,,,0.00,meteohub,2013-03-01 19:42:00,
2013-03-01 14:47:00,31.8,15.3,29.75,West,280,21.0,21.0,50,0.00,,,0.00,meteohub,2013-03-01 19:47:00,
2013-03-01 14:52:00,32.9,15.8,29.75,WNW,302,9.0,21.0,49,0.00,,,0.00,meteohub,2013-03-01 19:52:00,
2013-03-01 14:57:00,33.1,15.6,29.78,NW,325,9.0,21.0,48,0.00,,,0.00,meteohub,2013-03-01 19:57:00,
2013-03-01 15:02:00,32.5,13.6,29.78,SW,235,9.0,21.0,45,0.00,,,0.00,meteohub,2013-03-01 20:02:00,
2013-03-01 15:07:00,32.5,13.6,29.78,NNW,348,21.0,25.0,45,0.00,,,0.00,meteohub,2013-03-01 20:07:00,
2013-03-01 15:12:00,32.5,14.5,29.75,NE,55,5.0,28.0,47,0.00,,,0.00,meteohub,2013-03-01 20:12:00,
2013-03-01 15:17:00,32.7,14.4,29.75,SSW,212,13.0,28.0,46,0.00,,,0.00,meteohub,2013-03-01 20:17:00,
2013-03-01 15:22:00,32.7,13.8,29.75,NNW,348,6.0,21.0,45,0.00,,,0.00,meteohub,2013-03-01 20:22:00,
2013-03-01 15:27:00,32.7,13.3,29.75,NW,325,3.0,19.0,44,0.00,,,0.00,meteohub,2013-03-01 20:27:00,
2013-03-01 15:32:00,32.7,13.3,29.75,NNE,32,6.0,19.0,44,0.00,,,0.00,meteohub,2013-03-01 20:32:00,
2013-03-01 15:37:00,32.9,14.0,29.75,NNW,348,5.0,22.0,45,0.00,,,0.00,meteohub,2013-03-01 20:37:00,
2013-03-01 15:42:00,32.7,13.3,29.75,North,10,7.0,22.0,44,0.00,,,0.00,meteohub,2013-03-01 20:42:00,
2013-03-01 15:47:00,32.9,14.0,29.75,NNW,348,11.0,15.0,45,0.00,,,0.00,meteohub,2013-03-01 20:47:00,
2013-03-01 15:52:00,33.1,14.2,29.75,NE,55,11.0,15.0,45,0.00,,,0.00,meteohub,2013-03-01 20:52:00,
2013-03-01 15:57:00,33.1,14.2,29.75,North,10,5.0,15.0,45,0.00,,,0.00,meteohub,2013-03-01 20:57:00,
2013-03-01 16:02:00,32.9,14.0,29.75,NNW,348,10.0,15.0,45,0.00,,,0.00,meteohub,2013-03-01 21:02:00,
2013-03-01 16:07:00,32.9,14.4,29.75,WNW,302,6.0,15.0,46,0.00,,,0.00,meteohub,2013-03-01 21:07:00,
2013-03-01 16:12:00,32.9,14.4,29.75,WNW,302,7.0,15.0,46,0.00,,,0.00,meteohub,2013-03-01 21:12:00,
2013-03-01 16:17:00,32.7,14.4,29.75,SW,235,7.0,15.0,46,0.00,,,0.00,meteohub,2013-03-01 21:17:00,
2013-03-01 16:22:00,32.7,14.4,29.75,NNW,348,8.0,13.0,46,0.00,,,0.00,meteohub,2013-03-01 21:22:00,
2013-03-01 16:27:00,32.7,14.7,29.75,North,10,2.0,13.0,47,0.00,,,0.00,meteohub,2013-03-01 21:27:00,
2013-03-01 16:32:00,32.7,14.4,29.75,WSW,258,2.0,13.0,46,0.00,,,0.00,meteohub,2013-03-01 21:32:00,
2013-03-01 16:37:00,32.4,13.5,29.75,NW,325,9.0,16.0,45,0.00,,,0.00,meteohub,2013-03-01 21:37:00,
2013-03-01 16:47:00,32.4,14.0,29.75,WNW,302,4.0,20.0,46,0.00,,,0.00,meteohub,2013-03-01 21:47:00,
2013-03-01 16:57:00,32.4,14.4,29.75,North,10,11.0,17.0,47,0.00,,,0.00,meteohub,2013-03-01 21:57:00,
2013-03-01 17:02:00,32.2,13.8,29.75,NNW,348,7.0,17.0,46,0.00,,,0.00,meteohub,2013-03-01 22:02:00,
2013-03-01 17:07:00,32.4,14.4,29.75,NNW,348,7.0,17.0,47,0.00,,,0.00,meteohub,2013-03-01 22:07:00,
2013-03-01 17:12:00,32.2,13.8,29.75,NNE,32,11.0,14.0,46,0.00,,,0.00,meteohub,2013-03-01 22:12:00,
2013-03-01 17:17:00,32.0,14.2,29.75,West,280,7.0,15.0,47,0.00,,,0.00,meteohub,2013-03-01 22:17:00,
2013-03-01 17:22:00,32.0,14.2,29.75,WSW,258,7.0,15.0,47,0.00,,,0.00,meteohub,2013-03-01 22:22:00,
2013-03-01 17:32:00,32.0,14.2,29.75,West,280,9.0,15.0,47,0.00,,,0.00,meteohub,2013-03-01 22:32:00,
2013-03-01 17:37:00,31.8,14.0,29.75,WSW,258,13.0,15.0,47,0.00,,,0.00,meteohub,2013-03-01 22:37:00,
2013-03-01 17:42:00,31.8,14.4,29.75,North,10,9.0,15.0,48,0.00,,,0.00,meteohub,2013-03-01 22:42:00,
2013-03-01 17:47:00,31.6,14.2,29.75,NW,325,5.0,17.0,48,0.00,,,0.00,meteohub,2013-03-01 22:47:00,
2013-03-01 17:52:00,31.5,14.0,29.75,WNW,302,16.0,17.0,48,0.00,,,0.00,meteohub,2013-03-01 22:52:00,
2013-03-01 17:57:00,31.3,14.4,29.75,WSW,258,6.0,17.0,49,0.00,,,0.00,meteohub,2013-03-01 22:57:00,
2013-03-01 18:02:00,31.1,14.2,29.75,SSW,212,5.0,17.0,49,0.00,,,0.00,meteohub,2013-03-01 23:02:00,
2013-03-01 18:07:00,31.1,14.2,29.75,WNW,302,6.0,17.0,49,0.00,,,0.00,meteohub,2013-03-01 23:07:00,
2013-03-01 18:12:00,31.1,14.2,29.75,WNW,302,4.0,17.0,49,0.00,,,0.00,meteohub,2013-03-01 23:12:00,
2013-03-01 18:17:00,31.1,14.2,29.75,NNW,348,6.0,16.0,49,0.00,,,0.00,meteohub,2013-03-01 23:17:00,
2013-03-01 18:22:00,31.1,14.2,29.75,WNW,302,6.0,16.0,49,0.00,,,0.00,meteohub,2013-03-01 23:22:00,
2013-03-01 18:27:00,30.9,14.0,29.75,NNE,32,8.0,16.0,49,0.00,,,0.00,meteohub,2013-03-01 23:27:00,
2013-03-01 18:32:00,30.9,14.5,29.75,WSW,258,7.0,13.0,50,0.00,,,0.00,meteohub,2013-03-01 23:32:00,
2013-03-01 18:37:00,30.7,14.4,29.75,WSW,258,6.0,13.0,50,0.00,,,0.00,meteohub,2013-03-01 23:37:00,
2013-03-01 18:42:00,30.7,14.4,29.75,West,280,5.0,13.0,50,0.00,,,0.00,meteohub,2013-03-01 23:42:00,
2013-03-01 18:47:00,30.7,14.4,29.75,SSW,212,6.0,13.0,50,0.00,,,0.00,meteohub,2013-03-01 23:47:00,
2013-03-01 18:52:00,30.7,14.7,29.75,ENE,78,8.0,9.0,51,0.00,,,0.00,meteohub,2013-03-01 23:52:00,
2013-03-01 18:57:00,30.6,14.5,29.78,WNW,302,8.0,9.0,51,0.00,,,0.00,meteohub,2013-03-01 23:57:00,
2013-03-01 19:07:00,30.6,14.2,29.78,NNW,348,5.0,12.0,50,0.00,,,0.00,meteohub,2013-03-02 00:07:00,
2013-03-01 19:17:00,30.6,14.2,29.78,WSW,258,2.0,11.0,50,0.00,,,0.00,meteohub,2013-03-02 00:17:00,
2013-03-01 19:22:00,30.4,14.4,29.78,WSW,258,6.0,11.0,51,0.00,,,0.00,meteohub,2013-03-02 00:22:00,
2013-03-01 19:27:00,30.6,14.2,29.78,WSW,258,6.0,17.0,50,0.00,,,0.00,meteohub,2013-03-02 00:27:00,
2013-03-01 19:37:00,30.4,14.0,29.78,NNE,32,6.0,17.0,50,0.00,,,0.00,meteohub,2013-03-02 00:37:00,
2013-03-01 19:42:00,30.4,14.0,29.78,WSW,258,4.0,13.0,50,0.00,,,0.00,meteohub,2013-03-02 00:42:00,
2013-03-01 19:47:00,30.4,14.0,29.78,WNW,302,0.0,12.0,50,0.00,,,0.00,meteohub,2013-03-02 00:47:00,
2013-03-01 19:52:00,30.4,14.0,29.78,SW,235,3.0,12.0,50,0.00,,,0.00,meteohub,2013-03-02 00:52:00,
2013-03-01 19:57:00,30.4,14.4,29.78,SW,235,5.0,9.0,51,0.00,,,0.00,meteohub,2013-03-02 00:57:00,
2013-03-01 20:02:00,30.4,14.4,29.78,West,280,2.0,9.0,51,0.00,,,0.00,meteohub,2013-03-02 01:02:00,
2013-03-01 20:07:00,30.2,14.4,29.78,SSE,168,4.0,12.0,51,0.00,,,0.00,meteohub,2013-03-02 01:07:00,
2013-03-01 20:12:00,30.2,14.4,29.78,SSW,212,2.0,12.0,51,0.00,,,0.00,meteohub,2013-03-02 01:12:00,
2013-03-01 20:17:00,30.2,14.4,29.78,WSW,258,6.0,7.0,51,0.00,,,0.00,meteohub,2013-03-02 01:17:00,
2013-03-01 20:22:00,30.2,14.4,29.78,NNW,348,6.0,9.0,51,0.00,,,0.00,meteohub,2013-03-02 01:22:00,
2013-03-01 20:27:00,30.2,14.7,29.78,North,10,5.0,9.0,52,0.00,,,0.00,meteohub,2013-03-02 01:27:00,
2013-03-01 20:32:00,30.2,14.7,29.78,WNW,302,5.0,11.0,52,0.00,,,0.00,meteohub,2013-03-02 01:32:00,
2013-03-01 20:37:00,30.2,14.7,29.78,WSW,258,5.0,11.0,52,0.00,,,0.00,meteohub,2013-03-02 01:37:00,
2013-03-01 20:42:00,30.2,14.7,29.78,North,10,10.0,13.0,52,0.00,,,0.00,meteohub,2013-03-02 01:42:00,
2013-03-01 20:47:00,30.2,14.7,29.78,WNW,302,9.0,13.0,52,0.00,,,0.00,meteohub,2013-03-02 01:47:00,
2013-03-01 20:52:00,30.0,14.5,29.78,WNW,302,5.0,13.0,52,0.00,,,0.00,meteohub,2013-03-02 01:52:00,
2013-03-01 20:57:00,30.0,14.5,29.78,West,280,2.0,11.0,52,0.00,,,0.00,meteohub,2013-03-02 01:57:00,
2013-03-01 21:02:00,30.0,14.9,29.78,NNE,32,3.0,9.0,53,0.00,,,0.00,meteohub,2013-03-02 02:02:00,
2013-03-01 21:07:00,30.0,14.9,29.78,NNW,348,2.0,8.0,53,0.00,,,0.00,meteohub,2013-03-02 02:07:00,
2013-03-01 21:12:00,30.0,14.5,29.78,SSW,212,9.0,11.0,52,0.00,,,0.00,meteohub,2013-03-02 02:12:00,
2013-03-01 21:17:00,30.0,14.5,29.78,NNE,32,9.0,13.0,52,0.00,,,0.00,meteohub,2013-03-02 02:17:00,
2013-03-01 21:22:00,30.0,14.5,29.78,WSW,258,8.0,15.0,52,0.00,,,0.00,meteohub,2013-03-02 02:22:00,
2013-03-01 21:27:00,29.8,14.4,29.78,NNW,348,9.0,15.0,52,0.00,,,0.00,meteohub,2013-03-02 02:27:00,
2013-03-01 21:32:00,29.8,14.4,29.78,NW,325,6.0,13.0,52,0.00,,,0.00,meteohub,2013-03-02 02:32:00,
2013-03-01 21:37:00,29.8,14.0,29.78,North,10,13.0,15.0,51,0.00,,,0.00,meteohub,2013-03-02 02:37:00,
2013-03-01 21:42:00,29.8,14.4,29.81,North,10,3.0,15.0,52,0.00,,,0.00,meteohub,2013-03-02 02:42:00,
2013-03-01 21:47:00,29.8,14.4,29.81,West,280,4.0,15.0,52,0.00,,,0.00,meteohub,2013-03-02 02:47:00,
2013-03-01 21:52:00,29.7,14.2,29.81,SE,145,3.0,13.0,52,0.00,,,0.00,meteohub,2013-03-02 02:52:00,
2013-03-01 21:57:00,29.7,13.8,29.81,NNE,32,7.0,13.0,51,0.00,,,0.00,meteohub,2013-03-02 02:57:00,
2013-03-01 22:02:00,29.7,14.2,29.81,NNW,348,13.0,13.0,52,0.00,,,0.00,meteohub,2013-03-02 03:02:00,
2013-03-01 22:07:00,29.7,14.2,29.81,South,190,4.0,13.0,52,0.00,,,0.00,meteohub,2013-03-02 03:07:00,
2013-03-01 22:12:00,29.7,13.8,29.78,WSW,258,3.0,13.0,51,0.00,,,0.00,meteohub,2013-03-02 03:12:00,
2013-03-01 22:17:00,29.7,14.2,29.78,NW,325,4.0,13.0,52,0.00,,,0.00,meteohub,2013-03-02 03:17:00,
2013-03-01 22:22:00,29.5,14.0,29.78,SSW,212,7.0,13.0,52,0.00,,,0.00,meteohub,2013-03-02 03:22:00,
2013-03-01 22:27:00,29.5,14.0,29.81,NNW,348,14.0,15.0,52,0.00,,,0.00,meteohub,2013-03-02 03:27:00,
2013-03-01 22:52:00,29.3,14.4,29.81,WSW,258,9.0,21.0,53,0.00,,,0.00,meteohub,2013-03-02 03:52:00,
2013-03-01 22:57:00,29.3,14.4,29.78,WSW,258,5.0,13.0,53,0.00,,,0.00,meteohub,2013-03-02 03:57:00,
2013-03-01 23:02:00,29.1,14.2,29.78,WSW,258,3.0,13.0,53,0.00,,,0.00,meteohub,2013-03-02 04:02:00,
2013-03-01 23:07:00,29.1,14.2,29.78,WNW,302,7.0,11.0,53,0.00,,,0.00,meteohub,2013-03-02 04:07:00,
2013-03-01 23:12:00,29.1,14.2,29.78,West,280,13.0,17.0,53,0.00,,,0.00,meteohub,2013-03-02 04:12:00,
2013-03-01 23:17:00,28.9,14.4,29.78,West,280,7.0,17.0,54,0.00,,,0.00,meteohub,2013-03-02 04:17:00,
2013-03-01 23:22:00,28.9,14.4,29.78,West,280,5.0,17.0,54,0.00,,,0.00,meteohub,2013-03-02 04:22:00,
2013-03-01 23:27:00,28.9,14.4,29.78,NW,325,8.0,15.0,54,0.00,,,0.00,meteohub,2013-03-02 04:27:00,
2013-03-01 23:32:00,28.8,14.2,29.78,NNE,32,5.0,15.0,54,0.00,,,0.00,meteohub,2013-03-02 04:32:00,
2013-03-01 23:37:00,28.8,14.2,29.78,WSW,258,8.0,16.0,54,0.00,,,0.00,meteohub,2013-03-02 04:37:00,
2013-03-01 23:42:00,28.8,14.2,29.78,WNW,302,4.0,16.0,54,0.00,,,0.00,meteohub,2013-03-02 04:42:00,
2013-03-01 23:47:00,28.8,14.2,29.78,NE,55,3.0,16.0,54,0.00,,,0.00,meteohub,2013-03-02 04:47:00,
2013-03-01 23:52:00,28.6,14.0,29.78,NE,55,5.0,16.0,54,0.00,,,0.00,meteohub,2013-03-02 04:52:00,
2013-03-01 23:57:00,28.6,14.0,29.78,NNW,348,5.0,11.0,54,0.00,,,0.00,meteohub,2013-03-02 04:57:00,